Time,TemperatureF,DewpointF,PressureIn,WindDirection,WindDirectionDegrees,WindSpeedMPH,WindSpeedGustMPH,Humidity,HourlyPrecipIn,Conditions,Clouds,dailyrainin,SoftwareType,DateUTC
2013-01-24 00:03:00,1.0,-8.0,30.16,North,0,0.0,-999.0,65,-99.99,,,-99.99,,2013-01-24 05:03:00,
2013-01-24 00:12:00,1.0,-9.0,30.16,North,0,0.0,-999.0,59,-99.99,,,-99.99,,2013-01-24 05:12:00,
2013-01-24 00:22:00,1.0,-9.0,30.15,North,360,3.0,-999.0,59,-99.99,,,-99.99,,2013-01-24 05:22:00,
2013-01-24 00:33:00,0.0,-8.0,30.15,North,10,3.0,-999.0,70,-99.99,,,-99.99,,2013-01-24 05:33:00,
2013-01-24 00:42:00,0.0,-9.0,30.15,North,10,5.0,-999.0,64,-99.99,,,-99.99,,2013-01-24 05:42:00,
2013-01-24 00:52:00,0.0,-8.0,30.15,North,10,5.0,-999.0,70,-99.99,,,-99.99,,2013-01-24 05:52:00,
2013-01-24 01:03:00,0.0,-8.0,30.15,North,10,5.0,-999.0,70,-99.99,,,-99.99,,2013-01-24 06:03:00,
2013-01-24 01:12:00,-2.0,-8.0,30.16,North,10,5.0,-999.0,77,-99.99,,,-99.99,,2013-01-24 06:12:00,
2013-01-24 01:22:00,-2.0,-8.0,30.15,North,0,0.0,-999.0,77,-99.99,,,-99.99,,2013-01-24 06:22:00,
2013-01-24 01:32:00,-2.0,-8.0,30.15,North,0,0.0,-999.0,77,-99.99,,,-99.99,,2013-01-24 06:32:00,
2013-01-24 01:42:00,0.0,-8.0,30.15,North,0,0.0,-999.0,70,-99.99,,,-99.99,,2013-01-24 06:42:00,
2013-01-24 01:52:00,0.0,-8.0,30.16,North,0,0.0,-999.0,70,-99.99,,,-99.99,,2013-01-24 06:52:00,
2013-01-24 02:03:00,0.0,-8.0,30.16,North,0,0.0,-999.0,70,-99.99,,,-99.99,,2013-01-24 07:03:00,
2013-01-24 02:12:00,0.0,-6.0,30.16,North,0,0.0,-999.0,77,-99.99,,,-99.99,,2013-01-24 07:12:00,
2013-01-24 02:23:00,0.0,-8.0,30.16,North,0,0.0,-999.0,70,-99.99,,,-99.99,,2013-01-24 07:23:00,
2013-01-24 02:33:00,-2.0,-8.0,30.15,North,0,0.0,-999.0,77,-99.99,,,-99.99,,2013-01-24 07:33:00,
2013-01-24 02:42:00,-4.0,-9.0,30.15,North,10,5.0,-999.0,76,-99.99,,,-99.99,,2013-01-24 07:42:00,
2013-01-24 02:52:00,-4.0,-8.0,30.15,North,360,3.0,-999.0,84,-99.99,,,-99.99,,2013-01-24 07:52:00,
2013-01-24 03:02:00,-4.0,-8.0,30.15,North,360,3.0,-999.0,84,-99.99,,,-99.99,,2013-01-24 08:02:00,
2013-01-24 03:12:00,-2.0,-8.0,30.15,North,350,7.0,-999.0,77,-99.99,,,-99.99,,2013-01-24 08:12:00,
2013-01-24 03:23:00,-2.0,-9.0,30.15,NW,310,5.0,-999.0,70,-99.99,,,-99.99,,2013-01-24 08:23:00,
2013-01-24 03:33:00,-2.0,-9.0,30.15,WNW,290,6.0,-999.0,70,-99.99,,,-99.99,,2013-01-24 08:33:00,
2013-01-24 03:43:00,-2.0,-9.0,30.15,West,280,5.0,-999.0,70,-99.99,,,-99.99,,2013-01-24 08:43:00,
2013-01-24 03:52:00,-2.0,-9.0,30.15,WNW,290,6.0,-999.0,70,-99.99,,,-99.99,,2013-01-24 08:52:00,
2013-01-24 04:03:00,-2.0,-9.0,30.15,WNW,290,6.0,-999.0,70,-99.99,,,-99.99,,2013-01-24 09:03:00,
2013-01-24 04:13:00,0.0,-9.0,30.15,WNW,290,6.0,-999.0,64,-99.99,,,-99.99,,2013-01-24 09:13:00,
2013-01-24 04:23:00,-2.0,-9.0,30.15,NE,40,3.0,-999.0,70,-99.99,,,-99.99,,2013-01-24 09:23:00,
2013-01-24 04:33:00,-2.0,-9.0,30.15,North,0,0.0,-999.0,70,-99.99,,,-99.99,,2013-01-24 09:33:00,
2013-01-24 04:43:00,-2.0,-9.0,30.15,North,0,0.0,-999.0,70,-99.99,,,-99.99,,2013-01-24 09:43:00,
2013-01-24 04:52:00,-2.0,-9.0,30.15,North,0,0.0,-999.0,70,-99.99,,,-99.99,,2013-01-24 09:52:00,
2013-01-24 05:03:00,-2.0,-9.0,30.15,North,0,0.0,-999.0,70,-99.99,,,-99.99,,2013-01-24 10:03:00,
2013-01-24 05:12:00,-2.0,-9.0,30.15,WNW,300,5.0,-999.0,70,-99.99,,,-99.99,,2013-01-24 10:12:00,
2013-01-24 05:23:00,-2.0,-9.0,30.16,North,0,0.0,-999.0,70,-99.99,,,-99.99,,2013-01-24 10:23:00,
2013-01-24 05:33:00,-2.0,-9.0,30.16,WNW,290,6.0,-999.0,70,-99.99,,,-99.99,,2013-01-24 10:33:00,
2013-01-24 05:43:00,-2.0,-9.0,30.16,WNW,290,8.0,-999.0,70,-99.99,,,-99.99,,2013-01-24 10:43:00,
2013-01-24 05:52:00,-2.0,-9.0,30.17,NW,310,5.0,-999.0,70,-99.99,,,-99.99,,2013-01-24 10:52:00,
2013-01-24 06:03:00,-2.0,-9.0,30.17,NW,310,5.0,-999.0,70,-99.99,,,-99.99,,2013-01-24 11:03:00,
2013-01-24 06:12:00,-2.0,-9.0,30.18,North,10,3.0,-999.0,70,-99.99,,,-99.99,,2013-01-24 11:12:00,
2013-01-24 06:23:00,-4.0,-9.0,30.18,North,0,0.0,-999.0,76,-99.99,,,-99.99,,2013-01-24 11:23:00,
2013-01-24 06:33:00,-4.0,-9.0,30.18,NW,310,3.0,-999.0,76,-99.99,,,-99.99,,2013-01-24 11:33:00,
2013-01-24 06:43:00,-4.0,-9.0,30.19,NW,320,3.0,-999.0,76,-99.99,,,-99.99,,2013-01-24 11:43:00,
2013-01-24 06:53:00,-2.0,-9.0,30.19,NW,320,5.0,-999.0,70,-99.99,,,-99.99,,2013-01-24 11:53:00,
2013-01-24 07:03:00,-2.0,-9.0,30.19,NW,320,5.0,-999.0,70,-99.99,,,-99.99,,2013-01-24 12:03:00,
2013-01-24 07:12:00,-2.0,-9.0,30.20,North,0,0.0,-999.0,70,-99.99,,,-99.99,,2013-01-24 12:12:00,
2013-01-24 07:23:00,-4.0,-9.0,30.20,North,0,0.0,-999.0,76,-99.99,,,-99.99,,2013-01-24 12:23:00,
2013-01-24 07:33:00,-6.0,-9.0,30.20,North,0,0.0,-999.0,83,-99.99,,,-99.99,,2013-01-24 12:33:00,
2013-01-24 07:43:00,-4.0,-9.0,30.20,WSW,240,5.0,-999.0,76,-99.99,,,-99.99,,2013-01-24 12:43:00,
2013-01-24 07:53:00,-4.0,-9.0,30.21,North,0,0.0,-999.0,76,-99.99,,,-99.99,,2013-01-24 12:53:00,
2013-01-24 08:03:00,-4.0,-9.0,30.21,North,0,0.0,-999.0,76,-99.99,,,-99.99,,2013-01-24 13:03:00,
2013-01-24 08:12:00,-4.0,-9.0,30.21,North,0,0.0,-999.0,76,-99.99,,,-99.99,,2013-01-24 13:12:00,
2013-01-24 08:22:00,-2.0,-8.0,30.21,North,0,0.0,-999.0,77,-99.99,,,-99.99,,2013-01-24 13:22:00,
2013-01-24 08:32:00,-2.0,-8.0,30.21,West,260,3.0,-999.0,77,-99.99,,,-99.99,,2013-01-24 13:32:00,
2013-01-24 08:42:00,0.0,-8.0,30.22,WNW,290,6.0,-999.0,70,-99.99,,,-99.99,,2013-01-24 13:42:00,
2013-01-24 08:52:00,1.0,-8.0,30.22,WNW,290,6.0,-999.0,65,-99.99,,,-99.99,,2013-01-24 13:52:00,
2013-01-24 09:03:00,1.0,-8.0,30.22,WNW,290,6.0,-999.0,65,-99.99,,,-99.99,,2013-01-24 14:03:00,
2013-01-24 09:11:00,3.0,-8.0,30.22,West,280,7.0,-999.0,59,-99.99,,,-99.99,,2013-01-24 14:11:00,
2013-01-24 09:22:00,3.0,-8.0,30.22,WNW,290,9.0,-999.0,59,-99.99,,,-99.99,,2013-01-24 14:22:00,
2013-01-24 09:32:00,3.0,-6.0,30.23,WNW,290,14.0,18.0,65,-99.99,,,-99.99,,2013-01-24 14:32:00,
2013-01-24 09:42:00,3.0,-6.0,30.23,West,280,13.0,18.0,65,-99.99,,,-99.99,,2013-01-24 14:42:00,
2013-01-24 09:53:00,5.0,-6.0,30.23,WNW,290,12.0,-999.0,60,-99.99,,,-99.99,,2013-01-24 14:53:00,
2013-01-24 10:04:00,5.0,-6.0,30.23,WNW,290,12.0,-999.0,60,-99.99,,,-99.99,,2013-01-24 15:04:00,
2013-01-24 10:12:00,7.0,-6.0,30.23,NW,310,12.0,18.0,55,-99.99,,,-99.99,,2013-01-24 15:12:00,
2013-01-24 10:22:00,7.0,-6.0,30.25,WNW,300,10.0,-999.0,55,-99.99,,,-99.99,,2013-01-24 15:22:00,
2013-01-24 10:32:00,7.0,-6.0,30.25,NW,310,9.0,-999.0,55,-99.99,,,-99.99,,2013-01-24 15:32:00,
2013-01-24 10:42:00,9.0,-4.0,30.24,WNW,300,9.0,-999.0,55,-99.99,,,-99.99,,2013-01-24 15:42:00,
2013-01-24 10:53:00,9.0,-6.0,30.23,NW,310,12.0,-999.0,51,-99.99,,,-99.99,,2013-01-24 15:53:00,
2013-01-24 11:03:00,9.0,-6.0,30.23,NW,310,12.0,-999.0,51,-99.99,,,-99.99,,2013-01-24 16:03:00,
2013-01-24 11:11:00,9.0,-6.0,30.24,West,280,9.0,-999.0,51,-99.99,,,-99.99,,2013-01-24 16:11:00,
2013-01-24 11:22:00,9.0,-6.0,30.24,West,280,12.0,-999.0,51,-99.99,,,-99.99,,2013-01-24 16:22:00,
2013-01-24 11:32:00,10.0,-6.0,30.24,NW,310,10.0,18.0,47,-99.99,,,-99.99,,2013-01-24 16:32:00,
2013-01-24 11:42:00,10.0,-6.0,30.24,NW,310,10.0,18.0,47,-99.99,,,-99.99,,2013-01-24 16:42:00,
2013-01-24 12:03:00,10.0,-4.0,30.24,NW,310,7.0,-999.0,51,-99.99,,,-99.99,,2013-01-24 17:03:00,
2013-01-24 12:11:00,10.0,-4.0,30.23,WNW,300,12.0,18.0,51,-99.99,,,-99.99,,2013-01-24 17:11:00,
2013-01-24 12:21:00,10.0,-4.0,30.23,WNW,290,17.0,24.0,51,-99.99,,,-99.99,,2013-01-24 17:21:00,
2013-01-24 12:31:00,12.0,-4.0,30.23,WNW,300,15.0,23.0,47,-99.99,,,-99.99,,2013-01-24 17:31:00,
2013-01-24 12:41:00,10.0,-6.0,30.23,WNW,300,12.0,21.0,47,-99.99,,,-99.99,,2013-01-24 17:41:00,
2013-01-24 12:51:00,12.0,-6.0,30.22,WNW,290,15.0,-999.0,43,-99.99,,,-99.99,,2013-01-24 17:51:00,
2013-01-24 13:02:00,12.0,-6.0,30.22,WNW,290,15.0,-999.0,43,-99.99,,,-99.99,,2013-01-24 18:02:00,
2013-01-24 13:12:00,12.0,-4.0,30.22,WNW,300,15.0,18.0,47,-99.99,,,-99.99,,2013-01-24 18:12:00,
2013-01-24 13:22:00,12.0,-4.0,30.22,WNW,290,14.0,27.0,47,-99.99,,,-99.99,,2013-01-24 18:22:00,
2013-01-24 13:33:00,12.0,-6.0,30.21,WNW,290,21.0,29.0,43,-99.99,,,-99.99,,2013-01-24 18:33:00,
2013-01-24 13:42:00,12.0,-6.0,30.22,WNW,290,22.0,32.0,43,-99.99,,,-99.99,,2013-01-24 18:42:00,
2013-01-24 13:53:00,12.0,-6.0,30.21,West,280,21.0,29.0,43,-99.99,,,-99.99,,2013-01-24 18:53:00,
2013-01-24 14:02:00,12.0,-6.0,30.21,West,280,21.0,29.0,43,-99.99,,,-99.99,,2013-01-24 19:02:00,
2013-01-24 14:12:00,12.0,-6.0,30.21,WNW,290,22.0,32.0,43,-99.99,,,-99.99,,2013-01-24 19:12:00,
2013-01-24 14:22:00,12.0,-6.0,30.22,WNW,290,23.0,30.0,43,-99.99,,,-99.99,,2013-01-24 19:22:00,
2013-01-24 14:33:00,12.0,-8.0,30.21,West,280,25.0,35.0,39,-99.99,,,-99.99,,2013-01-24 19:33:00,
2013-01-24 14:42:00,12.0,-8.0,30.21,West,280,22.0,35.0,39,-99.99,,,-99.99,,2013-01-24 19:42:00,
2013-01-24 14:52:00,12.0,-6.0,30.22,West,280,18.0,32.0,43,-99.99,,,-99.99,,2013-01-24 19:52:00,
2013-01-24 15:02:00,12.0,-6.0,30.22,West,280,18.0,32.0,43,-99.99,,,-99.99,,2013-01-24 20:02:00,
2013-01-24 15:11:00,12.0,-6.0,30.24,West,270,16.0,28.0,43,-99.99,,,-99.99,,2013-01-24 20:11:00,
2013-01-24 15:22:00,12.0,-6.0,30.25,West,270,16.0,24.0,43,-99.99,,,-99.99,,2013-01-24 20:22:00,
2013-01-24 15:33:00,12.0,-6.0,30.25,West,280,13.0,-999.0,43,-99.99,,,-99.99,,2013-01-24 20:33:00,
2013-01-24 15:42:00,12.0,-6.0,30.25,WNW,290,21.0,30.0,43,-99.99,,,-99.99,,2013-01-24 20:42:00,
2013-01-24 15:52:00,12.0,-4.0,30.25,WNW,290,18.0,27.0,47,-99.99,,,-99.99,,2013-01-24 20:52:00,
2013-01-24 16:02:00,12.0,-4.0,30.25,WNW,290,18.0,27.0,47,-99.99,,,-99.99,,2013-01-24 21:02:00,
2013-01-24 16:11:00,12.0,-6.0,30.25,WNW,290,22.0,31.0,43,-99.99,,,-99.99,,2013-01-24 21:11:00,
2013-01-24 16:21:00,12.0,-6.0,30.26,WNW,290,21.0,31.0,43,-99.99,,,-99.99,,2013-01-24 21:21:00,
2013-01-24 16:32:00,12.0,-6.0,30.26,West,280,24.0,33.0,43,-99.99,,,-99.99,,2013-01-24 21:32:00,
2013-01-24 16:42:00,12.0,-6.0,30.27,WNW,290,18.0,33.0,43,-99.99,,,-99.99,,2013-01-24 21:42:00,
2013-01-24 16:52:00,10.0,-6.0,30.28,WNW,290,28.0,37.0,47,-99.99,,,-99.99,,2013-01-24 21:52:00,
2013-01-24 17:03:00,10.0,-6.0,30.28,WNW,290,22.0,37.0,47,-99.99,,,-99.99,,2013-01-24 22:03:00,
2013-01-24 17:11:00,10.0,-4.0,30.29,WNW,290,21.0,29.0,51,-99.99,,,-99.99,,2013-01-24 22:11:00,
2013-01-24 17:21:00,10.0,-2.0,30.29,West,280,21.0,30.0,56,-99.99,,,-99.99,,2013-01-24 22:21:00,
2013-01-24 17:31:00,10.0,-2.0,30.29,West,280,17.0,29.0,56,-99.99,,,-99.99,,2013-01-24 22:31:00,
2013-01-24 17:41:00,10.0,-2.0,30.30,West,280,20.0,29.0,56,-99.99,,,-99.99,,2013-01-24 22:41:00,
2013-01-24 17:52:00,10.0,-2.0,30.30,West,280,16.0,30.0,56,-99.99,,,-99.99,,2013-01-24 22:52:00,
2013-01-24 18:03:00,10.0,-2.0,30.30,West,280,16.0,30.0,56,-99.99,,,-99.99,,2013-01-24 23:03:00,
2013-01-24 18:11:00,10.0,0.0,30.31,WNW,290,15.0,29.0,60,-99.99,,,-99.99,,2013-01-24 23:11:00,
2013-01-24 18:21:00,10.0,0.0,30.31,WNW,290,15.0,35.0,60,-99.99,,,-99.99,,2013-01-24 23:21:00,
2013-01-24 18:31:00,10.0,0.0,30.31,WNW,290,17.0,28.0,60,-99.99,,,-99.99,,2013-01-24 23:31:00,
2013-01-24 18:42:00,10.0,0.0,30.31,WNW,290,16.0,29.0,60,-99.99,,,-99.99,,2013-01-24 23:42:00,
2013-01-24 18:51:00,9.0,0.0,30.32,WNW,300,14.0,24.0,66,-99.99,,,-99.99,,2013-01-24 23:51:00,
2013-01-24 19:02:00,9.0,0.0,30.32,WNW,300,14.0,24.0,66,-99.99,,,-99.99,,2013-01-25 00:02:00,
2013-01-24 19:11:00,9.0,0.0,30.33,WNW,290,15.0,21.0,66,-99.99,,,-99.99,,2013-01-25 00:11:00,
2013-01-24 19:21:00,9.0,0.0,30.34,WNW,300,8.0,17.0,66,-99.99,,,-99.99,,2013-01-25 00:21:00,
2013-01-24 19:31:00,9.0,0.0,30.35,NW,310,12.0,16.0,66,-99.99,,,-99.99,,2013-01-25 00:31:00,
2013-01-24 19:41:00,9.0,0.0,30.35,WNW,300,9.0,20.0,66,-99.99,,,-99.99,,2013-01-25 00:41:00,
2013-01-24 19:51:00,9.0,0.0,30.35,NW,310,12.0,23.0,66,-99.99,,,-99.99,,2013-01-25 00:51:00,
2013-01-24 20:02:00,9.0,0.0,30.35,NW,310,12.0,-999.0,66,-99.99,,,-99.99,,2013-01-25 01:02:00,
2013-01-24 20:11:00,9.0,1.0,30.35,NW,310,13.0,16.0,71,-99.99,,,-99.99,,2013-01-25 01:11:00,
2013-01-24 20:21:00,9.0,1.0,30.35,WNW,300,9.0,18.0,71,-99.99,,,-99.99,,2013-01-25 01:21:00,
2013-01-24 20:31:00,9.0,1.0,30.35,WNW,300,13.0,18.0,71,-99.99,,,-99.99,,2013-01-25 01:31:00,
2013-01-24 20:41:00,9.0,1.0,30.34,WNW,300,9.0,18.0,71,-99.99,,,-99.99,,2013-01-25 01:41:00,
2013-01-24 20:52:00,9.0,1.0,30.34,NW,310,9.0,-999.0,71,-99.99,,,-99.99,,2013-01-25 01:52:00,
2013-01-24 21:02:00,9.0,1.0,30.34,NW,310,9.0,-999.0,71,-99.99,,,-99.99,,2013-01-25 02:02:00,
2013-01-24 21:11:00,9.0,0.0,30.35,WNW,300,9.0,-999.0,66,-99.99,,,-99.99,,2013-01-25 02:11:00,
2013-01-24 21:21:00,9.0,0.0,30.34,WNW,300,8.0,-999.0,66,-99.99,,,-99.99,,2013-01-25 02:21:00,
2013-01-24 21:31:00,9.0,0.0,30.34,WNW,300,8.0,16.0,66,-99.99,,,-99.99,,2013-01-25 02:31:00,
2013-01-24 21:41:00,9.0,0.0,30.34,WNW,300,7.0,16.0,66,-99.99,,,-99.99,,2013-01-25 02:41:00,
2013-01-24 21:52:00,9.0,0.0,30.34,WNW,300,7.0,-999.0,66,-99.99,,,-99.99,,2013-01-25 02:52:00,
2013-01-24 22:02:00,9.0,0.0,30.34,WNW,300,7.0,-999.0,66,-99.99,,,-99.99,,2013-01-25 03:02:00,
2013-01-24 22:12:00,9.0,0.0,30.35,NW,310,3.0,-999.0,66,-99.99,,,-99.99,,2013-01-25 03:12:00,
2013-01-24 22:22:00,10.0,0.0,30.35,West,280,7.0,-999.0,60,-99.99,,,-99.99,,2013-01-25 03:22:00,
2013-01-24 22:33:00,10.0,0.0,30.35,West,280,7.0,17.0,60,-99.99,,,-99.99,,2013-01-25 03:33:00,
2013-01-24 22:42:00,10.0,0.0,30.35,WNW,290,9.0,17.0,60,-99.99,,,-99.99,,2013-01-25 03:42:00,
2013-01-24 22:52:00,10.0,0.0,30.35,NW,310,13.0,21.0,60,-99.99,,,-99.99,,2013-01-25 03:52:00,
2013-01-24 23:02:00,10.0,0.0,30.35,NW,310,13.0,21.0,60,-99.99,,,-99.99,,2013-01-25 04:02:00,
2013-01-24 23:12:00,10.0,-2.0,30.35,WNW,300,9.0,-999.0,56,-99.99,,,-99.99,,2013-01-25 04:12:00,
2013-01-24 23:22:00,9.0,-2.0,30.36,WNW,290,6.0,-999.0,60,-99.99,,,-99.99,,2013-01-25 04:22:00,
2013-01-24 23:32:00,9.0,-2.0,30.37,WNW,290,8.0,-999.0,60,-99.99,,,-99.99,,2013-01-25 04:32:00,
2013-01-24 23:42:00,9.0,-2.0,30.37,WNW,290,10.0,-999.0,60,-99.99,,,-99.99,,2013-01-25 04:42:00,
2013-01-24 23:51:00,9.0,-2.0,30.37,WNW,290,8.0,-999.0,60,-99.99,,,-99.99,,2013-01-25 04:51:00,